Regional Weather Roundup
Issued by NWS

Home | Current Version | Previous Version | Graphics & Text | Print | Product List | Glossary On
Versions: 1 2 3 4 5 6 7 8 9 10 11 12 13 14 15 16 17 18 19 20 21 22 23 24 25 26 27 28 29 30 31 32 33 34 35 36 37 38 39 40 41 42 43 44 45 46 47 48 49 50
947
ASUS45 KBOU 060507
RWRCO

WEATHER ROUNDUP FOR COLORADO
NATIONAL WEATHER SERVICE DENVER/BOULDER CO
1000 PM MST MON DEC 05 2016

NOTE: "FAIR" INDICATES FEW OR NO CLOUDS BELOW 12000 FEET WITH NO
SIGNIFICANT WEATHER AND/OR OBSTRUCTIONS TO VISIBILITY.

COZ001>005-013-030-031-060600-
...NORTHWEST COLORADO...

CITY           SKY/WX    TMP DP  RH WIND       PRES   REMARKS
CRAIG          FAIR       5  -5  63 CALM      29.98S
HAYDEN         MOCLDY    10 -11  37 S5        29.95S WCI   2
MEEKER         FAIR       1  -5  75 NE5       29.98R WCI  -9
MOUNT WERNER   NOT AVBL
STEAMBOAT SPGS CLOUDY     7  -3  64 CALM      29.94S
WALDEN           N/A      0 -13  55 W6        29.85S WCI -12
$$

COZ006>008-011-060600-
...WEST CENTRAL VALLEYS...

CITY           SKY/WX    TMP DP  RH WIND       PRES   REMARKS
GRAND JUNCTION FAIR      19   8  62 CALM      29.97S
MONTROSE       FAIR      24   9  52 CALM      29.98R
EAGLE          CLOUDY    20   6  55 E8        29.95R WCI  10
RIFLE          FAIR      25   0  33 NW8       29.98R WCI  16
DELTA          FAIR      32   1  26 W13G21    29.94R WCI  22
NUCLA          FAIR      30  14  51 CALM      29.95R
$$

COZ017>023-064>068-060600-
...SOUTHWEST COLORADO...

CITY           SKY/WX    TMP DP  RH WIND       PRES   REMARKS
DURANGO        FAIR      27  15  61 NE3       29.88R
CORTEZ         FAIR      28  21  75 E7        29.89S WCI  21
PAGOSA SPRINGS FAIR      24  11  58 CALM      29.89R
TELLURIDE      NOT AVBL
WOLF CREEK PAS FAIR      12   5  73 S18G31    29.89R WCI  -5
$$

COZ009-010-012-014-032>034-037-058>063-060600-
...CENTRAL COLORADO...

CITY           SKY/WX    TMP DP  RH WIND       PRES   REMARKS
ASPEN          CLOUDY    18   3  52 N8        29.89R WCI   8
BUENA VISTA    MOCLDY    27   7  41 W12G25    29.79R WCI  17
COPPER MTN       N/A      5  -2  72 MISG      29.71S
BERTHOUD PASS  LGT SNOW  -9 -20  59 MISG      29.62S
COTTONWOOD PAS CLOUDY    25   9  50 SW12G23   29.77R WCI  14
GUNNISON       MOCLDY    22  14  71 SW6       29.87R WCI  14
KREMMLING      CLOUDY    19  -8  30 N3        29.92S
LEADVILLE      FAIR       9   1  70 N12G20    29.75R WCI  -6
MONARCH PASS   CLOUDY     9   7  92 SW37G47   29.85R WCI -16
SALIDA         FAIR      31  10  40 SW15G23   29.90S WCI  20
SUNLIGHT       CLOUDY     1  -2  85 SW8G16    29.84S WCI -12
WILKERSON PASS FAIR      12   0  57 SW18G30   29.73R WCI  -5
$$

COZ069>075-060600-
...SAN LUIS VALLEY/SANGRE DE CRISTO MOUNTAINS...

CITY           SKY/WX    TMP DP  RH WIND       PRES   REMARKS
ALAMOSA        FAIR      11   7  84 SE9       29.84R WCI  -2
LA VETA PASS   FAIR      21  10  63 NE9G16    29.85R WCI  11
SAGUACHE       FAIR      19   9  63 N10       29.85F WCI   8
$$

COZ035-036-038>040-060600-
...NORTHERN COLORADO FRONT RANGE...

CITY           SKY/WX    TMP DP  RH WIND       PRES   REMARKS
DENVER INTL AP MOCLDY    24   1  36 N8        29.89R WCI  15
DMNS CITY PARK   N/A     23  -1  35 SE8       29.90R WCI  14
AURORA         PTCLDY    16   3  58 NE6       29.88R WCI   7
FRONT RANGE AP NOT AVBL
ERIE MUNI ARPT FAIR      25  -4  28 W13G23    29.91R WCI  13
BOULDER MUN AP FAIR      27  -4  26 W28G36    29.87R WCI  11
CENTENNIAL     FAIR      20   2  45 E12       29.86R WCI   8
BROOMFIELD     MOCLDY    23  -2  33 NW7       29.88R WCI  15
FORT COLLINS   FAIR      23  -8  25 NW17      29.90S WCI   9
LONGMONT       FAIR      27  -2  27 CALM      29.93R
$$

COZ041-046-047-076>085-087-088-060600-
...PIKES PEAK/PALMER DIVIDE AND SOUTHERN FOOTHILLS...

CITY           SKY/WX    TMP DP  RH WIND       PRES   REMARKS
COLO. SPRINGS  FAIR      20  -7  30 W8G22     29.86R WCI  10
A. F. ACADEMY  FAIR      18  -7  33 N14       29.84R WCI   4
SCHRIEVER AFB  NOT AVBL
ELLICOTT       FAIR     N/A N/A N/A E15G24      N/A
FALCON         FAIR      16  -7  36 N15G26    29.82F WCI   1
FORT CARSON    FAIR      22  -4  32 VRB5      29.87R WCI  15
LIMON          FAIR      14   7  73 N8        29.89R WCI   3
MONUMENT HILL  FAIR      12  -4  48 E7        29.85R WCI   2
TRINIDAD       FAIR      26   0  32 NE12      29.90R WCI  16
$$

COZ042>045-048>051-090-091-060600-
...NORTHEAST COLORADO...

CITY           SKY/WX    TMP DP  RH WIND       PRES   REMARKS
GREELEY ARPT   FAIR      24  -4  29 NW23      29.92R WCI   9
AKRON          FAIR      14   7  73 N9        29.93R WCI   2
BURLINGTON     FAIR      23   9  55 N14       29.92R WCI  11
WRAY           NOT AVBL
STERLING       MOCLDY    21  12  68 NW7       29.95R WCI  13
HOLYOKE        FAIR      25  12  58 N12       29.96R WCI  14
FORT MORGAN    MOCLDY    22   4  45 N9G18     29.95R WCI  12
$$

COZ086-089-092>099-060600-
...SOUTHEAST COLORADO...

CITY           SKY/WX    TMP DP  RH WIND       PRES   REMARKS
PUEBLO         FAIR      27  -2  28 E3        29.93R
LA JUNTA       FAIR      27   6  41 NE12G20   29.93R WCI  17
LAMAR          FAIR      28   9  44 NE8       29.91R WCI  20
SPRINGFIELD      N/A     26   8  46 N18G28    29.87R WCI  13
$$




USA.gov is the U.S. government's official web portal to all federal, state and local government web resources and services.